{"data":{"norad_id":67823,"epoch":"2026-05-25T04:33:33.598944Z","epoch_age_seconds":58872,"freshness":"FRESH","line1":"1 67823U 26033C   26145.18997221  .00012662  00000+0  46874-3 0  9995","line2":"2 67823  43.0010 195.0287 0001343 266.0401  94.0297 15.27589140 16378","mean_motion":15.2758914,"eccentricity":0.0001343,"inclination_deg":43.001,"raan_deg":195.0287,"arg_perigee_deg":266.0401,"mean_anomaly_deg":94.0297,"bstar":0.00046874,"rev_number":1637,"period_min":94.266184688901,"perigee_km":482.10027411088,"apogee_km":483.94318134515,"semimajor_km":6861.158727728,"source":"CELESTRAK","updated_at":"2026-05-25T13:38:21.697595Z"}}